DECAYED

STARLINK-1055, 44760 (Decayed)

Orbit data source: Space-Track

STARLINK-1055, 44760 was a payload satellite owned by SpaceX/Seattle (US) in LEO that was launched on Mon, 11 Nov 2019 UTC via an FALCON 9 launch vehicle from the Air Force Eastern Test Range (AFETR). Payload-class satellites include a variety of spacecraft equipped with specific instruments for various scientific and technological missions. These include communications satellites like Starlink; space stations such as the ISS; scientific satellites like the Hubble; Earth observation satellites from companies like Planet Labs, Umbra, and HawkEye 360; GPS; miniature CubeSats for education and research; and military/defense satellites.

Not visible in the next 10 days
Identifier
44760, 2019-074AZ
Orbit
Decayed
Country
Flag of USUS
Related business
Manufacturer
SpaceX/Seattle
Mission
Decayed Commercial Communications
Bus & Motor
STARLINK, Unknown motor
Mass
260 kg wet, ~248 kg dry
Launch date (UTC)
2019-11-11 (6 years ago)
Launch vehicle
FALCON 9
Launch site
Air Force Eastern Test Range (AFETR)
Object type
Payload
Rocket body
Debris
Shape & HBR
Box + 1 Pan, 10.1 m
Radar Cross Section
13.562 m², Large (>1 m²)

Expand to show TLE details & history
Last TLE update: 1 year ago

TLE from 1 year ago
0 STARLINK-1055
1 44760U 19074AZ  25012.57664765  .19890369  12627-4  29694-3 0  9998
2 44760  52.9730 185.7445 0004230 289.9215 188.3104 16.48462663286724
Epoch: 2025-01-12T13:50Z
TLE epoch observation values (Epoch: 2025-01-12T13:50:22.356Z)
Latitude
44.85029°
Longitude
-2.40664°
Altitude
150.71 km
Speed
7.82 km/s
True Right ascension
21h 09m 59s
True Declination
44° 39' 44"
Sunlit
Object was in daylight at epoch
Visualization orbit readout
Latitude
Unknown
Longitude
Unknown
Altitude
Unknown
Speed
Unknown
Apparent Right ascension
Unknown
Apparent Declination
Unknown
Sunlit
N/A
Visualization observer readout
Local Sidereal Time
23:18:53
Azimuth
Unknown
Elevation
Unknown
Doppler factor
Unknown
Orbital elements
Apogee altitude
146.447 km
Perigee altitude
140.929 km
Semi-major axis
6,521.825 km
Eccentricity
0.00042
Inclination
52.973°
RAAN
185.7445°
Arg. of periapsis
289.9215°
True anomaly
188.3034°
Mean anomaly
188.3104°
Eccentric anomaly
188.3069°
Mean motion
4.12088 °/min
Orbital period
87.36 mins
BSTAR
0.00029694
Loading maneuver chart data...
Computing Atmospheric mass density...

Documentation

Showing up to 5 results
|